CQ0XBF-11 Chamusca PT current weather conditions

sailwx.info

Wind from 293 at 0 knots gusting 6

Air temperature 21.7° C
Dewpoint 13.6° C

Last reported at 2018-Jun-24 20:04 UTC.
Time now 2018-Jun-24 20:23 UTC

Location: N 39°21' W 008°28'.
View on Google Maps.

See reports from other nearby stations

  
Tides and Currents Weather Stations Pressure Air Temp Water Temp Dewpoint Dewpoint Depression Visibility Wind Speed Wind Dir Waves Ship Positions
date/time (UTC)wind fromknots sea level pressurealtimeterstation pressurevisibilityair tempwater tempwave heightnotes
2018-Jun-24 20:08 261 1 gusting 4 21.7
2018-Jun-24 20:04 293 0 gusting 6 21.7
2018-Jun-24 19:58 032 2 gusting 6 22.8
2018-Jun-24 19:54 008 2 gusting 6 22.2
2018-Jun-24 19:48 306 1 gusting 5 22.8
2018-Jun-24 19:44 322 2 gusting 4 23.3
2018-Jun-24 19:38 039 23.9
2018-Jun-24 19:34 243 23.9
2018-Jun-24 19:28 275 2 gusting 4 23.9
2018-Jun-24 19:24 270 0 gusting 4 23.9
2018-Jun-24 19:18 282 2 gusting 3 24.4
2018-Jun-24 19:14 234 24.4
2018-Jun-24 19:10 330 3 gusting 4 24.4
2018-Jun-24 19:04 267 0 gusting 5 25.0
2018-Jun-24 19:00 333 1 gusting 6 25.0
2018-Jun-24 18:53 315 0 gusting 6 25.6
2018-Jun-24 18:49 241 0 gusting 3 25.6
2018-Jun-24 18:43 144 0 gusting 4 26.1
2018-Jun-24 18:39 296 0 gusting 5 26.1
2018-Jun-24 18:33 247 26.1
2018-Jun-24 18:29 323 0 gusting 5 26.1
2018-Jun-24 18:23 300 3 gusting 8 25.6
2018-Jun-24 18:19 282 0 gusting 8 26.1
2018-Jun-24 18:13 310 2 gusting 6 26.1
2018-Jun-24 18:09 270 3 gusting 6 26.1
2018-Jun-24 18:03 271 4 gusting 8 26.1
2018-Jun-24 17:59 260 1 gusting 7 26.7
2018-Jun-24 17:55 288 5 gusting 9 26.1
2018-Jun-24 17:49 293 7 gusting 8 26.1
2018-Jun-24 17:45 303 3 gusting 8 26.1
2018-Jun-24 17:38 293 2 gusting 9 26.7
2018-Jun-24 17:34 250 4 gusting 7 26.7
2018-Jun-24 17:28 286 2 gusting 8 26.7
2018-Jun-24 17:24 282 6 gusting 6 26.7
2018-Jun-24 17:18 265 3 gusting 10 27.8
2018-Jun-24 17:14 330 5 gusting 6 27.8
2018-Jun-24 17:08 272 5 gusting 8 27.8
2018-Jun-24 17:04 281 2 gusting 8 27.2
2018-Jun-24 16:58 295 2 gusting 7 27.2
2018-Jun-24 16:54 305 2 gusting 8 27.8
2018-Jun-24 16:48 291 3 gusting 6 27.8
2018-Jun-24 16:44 298 2 gusting 7 28.3
2018-Jun-24 16:40 282 3 gusting 7 28.3
2018-Jun-24 16:34 251 4 gusting 8 28.3
2018-Jun-24 16:30 170 2 gusting 8 28.3
2018-Jun-24 16:24 293 5 gusting 7 28.3
2018-Jun-24 16:19 281 2 gusting 6 28.3
2018-Jun-24 16:13 278 2 gusting 6 28.9
2018-Jun-24 16:09 262 3 gusting 7 28.9
2018-Jun-24 16:03 192 3 gusting 7 28.9
2018-Jun-24 15:59 257 3 gusting 8 28.3
2018-Jun-24 15:53 229 4 gusting 7 28.3
2018-Jun-24 15:49 272 3 gusting 7 28.9
2018-Jun-24 15:43 315 4 gusting 7 28.9
2018-Jun-24 15:39 302 1 gusting 7 28.3
2018-Jun-24 15:33 333 3 gusting 6 28.9
2018-Jun-24 15:29 289 3 gusting 9 29.4
2018-Jun-24 15:23 324 0 gusting 7 30.0
2018-Jun-24 15:19 303 0 gusting 6 30.0
2018-Jun-24 15:15 250 2 gusting 5 30.6
2018-Jun-24 15:09 309 3 gusting 7 30.0
2018-Jun-24 15:05 241 2 gusting 7 30.0
2018-Jun-24 14:58 171 1 gusting 6 30.0
2018-Jun-24 14:54 257 4 gusting 8 30.0
2018-Jun-24 14:48 225 7 gusting 11 30.0
2018-Jun-24 14:44 220 5 gusting 8 29.4
2018-Jun-24 14:38 240 5 gusting 11 29.4
2018-Jun-24 14:34 213 5 gusting 7 29.4
2018-Jun-24 14:28 244 4 gusting 7 29.4
2018-Jun-24 14:24 226 3 gusting 7 29.4
2018-Jun-24 14:18 199 3 gusting 7 29.4
2018-Jun-24 14:14 215 5 gusting 10 29.4
2018-Jun-24 14:08 253 4 gusting 6 28.3
2018-Jun-24 14:04 260 2 gusting 6 28.3
2018-Jun-24 14:00 264 3 gusting 7 27.2
2018-Jun-24 13:54 247 3 gusting 8 26.1
2018-Jun-24 13:50 241 6 gusting 5 26.7
2018-Jun-24 13:43 274 5 gusting 7 26.7
2018-Jun-24 13:39 203 5 gusting 7 26.7
2018-Jun-24 13:33 262 2 gusting 7 26.7
2018-Jun-24 13:29 295 4 gusting 8 26.7
2018-Jun-24 13:23 248 26.1
2018-Jun-24 13:19 234 4 gusting 7 26.1
2018-Jun-24 13:13 213 3 gusting 5 26.1
2018-Jun-24 13:09 278 3 gusting 6 26.1
2018-Jun-24 13:03 307 3 gusting 6 26.1
2018-Jun-24 12:59 268 1 gusting 7 26.1
2018-Jun-24 12:53 243 3 gusting 7 25.6
2018-Jun-24 12:49 237 6 gusting 6 26.7
2018-Jun-24 12:45 264 4 gusting 7 26.7
2018-Jun-24 12:39 247 3 gusting 8 26.7
2018-Jun-24 12:35 232 0 gusting 6 26.1
2018-Jun-24 12:28 222 25.6
2018-Jun-24 12:24 284 1 gusting 5 25.6
2018-Jun-24 12:18 260 2 gusting 6 26.1
2018-Jun-24 12:14 291 0 gusting 6 25.6
2018-Jun-24 12:08 236 0 gusting 6 26.7
2018-Jun-24 12:04 260 1 gusting 4 26.7
2018-Jun-24 11:58 281 1 gusting 4 27.2
2018-Jun-24 11:54 271 27.2
2018-Jun-24 11:48 262 0 gusting 4 27.2
2018-Jun-24 11:44 217 27.2
2018-Jun-24 11:38 203 3 gusting 6 27.8
2018-Jun-24 11:34 149 0 gusting 4 27.8
2018-Jun-24 11:30 246 2 gusting 6 27.8
2018-Jun-24 11:24 260 2 gusting 6 27.8
2018-Jun-24 11:20 241 27.2
2018-Jun-24 11:13 271 0 gusting 5 26.7
2018-Jun-24 11:09 208 0 gusting 6 26.7
2018-Jun-24 11:03 257 2 gusting 4 26.7
2018-Jun-24 10:59 230 26.7
2018-Jun-24 10:53 215 4 gusting 5 26.7
2018-Jun-24 10:49 300 26.7
2018-Jun-24 06:03 154 2 gusting 4 17.8
2018-Jun-24 05:59 157 2 gusting 5 17.8
2018-Jun-24 05:53 217 2 gusting 4 17.2
2018-Jun-24 05:49 202 3 gusting 4 17.2
2018-Jun-24 05:43 215 1 gusting 5 17.2
2018-Jun-24 05:39 212 2 gusting 5 17.2
2018-Jun-24 05:33 189 2 gusting 4 17.2
2018-Jun-24 05:29 196 1 gusting 2 17.8
2018-Jun-24 05:23 217 2 gusting 3 17.2
2018-Jun-24 05:19 203 0 gusting 2 17.2
2018-Jun-24 05:15 215 0 gusting 4 17.8
2018-Jun-24 05:09 227 3 gusting 6 17.2
2018-Jun-24 05:05 229 5 gusting 5 17.2
2018-Jun-24 04:58 246 1 gusting 5 17.2
2018-Jun-24 04:54 172 2 gusting 6 17.2
2018-Jun-24 04:48 199 3 gusting 6 17.2
2018-Jun-24 04:44 191 1 gusting 6 17.2
2018-Jun-24 04:38 165 3 gusting 6 17.2
2018-Jun-24 04:34 203 5 gusting 6 17.8
2018-Jun-24 04:28 188 3 gusting 6 17.2
2018-Jun-24 04:24 203 2 gusting 6 17.2
2018-Jun-24 04:18 189 3 gusting 6 17.8
2018-Jun-24 04:14 180 3 gusting 7 17.2
2018-Jun-24 04:08 194 6 gusting 7 17.2
2018-Jun-24 04:04 203 3 gusting 6 17.2
2018-Jun-24 04:00 172 2 gusting 6 17.2
2018-Jun-24 03:54 180 3 gusting 6 17.2
2018-Jun-24 03:50 181 4 gusting 7 17.8
2018-Jun-24 03:43 188 3 gusting 6 17.8
2018-Jun-24 03:39 208 4 gusting 6 17.8
2018-Jun-24 03:33 201 4 gusting 6 17.8
2018-Jun-24 03:29 209 4 gusting 6 17.8
2018-Jun-24 03:23 178 4 gusting 6 17.8
2018-Jun-24 03:19 188 4 gusting 6 17.8
2018-Jun-24 03:13 192 5 gusting 7 17.8
2018-Jun-24 03:09 196 5 gusting 8 17.8
2018-Jun-24 03:03 198 3 gusting 6 17.8
2018-Jun-24 02:59 191 4 gusting 6 17.8
2018-Jun-24 02:53 191 3 gusting 6 17.8
2018-Jun-24 02:49 187 5 gusting 5 17.8
2018-Jun-24 02:45 185 3 gusting 6 17.8
2018-Jun-24 02:39 182 4 gusting 7 17.8
2018-Jun-24 02:35 194 5 gusting 6 17.8
2018-Jun-24 02:29 174 3 gusting 6 18.3
2018-Jun-24 02:24 196 5 gusting 5 18.3
2018-Jun-24 02:18 180 2 gusting 6 17.8
2018-Jun-24 02:14 209 2 gusting 4 18.3
2018-Jun-24 02:08 209 3 gusting 4 18.3
2018-Jun-24 02:04 220 3 gusting 4 18.3
2018-Jun-24 01:58 215 2 gusting 6 18.3
2018-Jun-24 01:54 225 3 gusting 4 18.9
2018-Jun-24 01:48 174 1 gusting 5 18.9
2018-Jun-24 01:44 201 2 gusting 4 18.9
2018-Jun-24 01:38 199 2 gusting 4 18.9
2018-Jun-24 01:34 219 2 gusting 4 18.9
2018-Jun-24 01:28 206 3 gusting 5 18.9
2018-Jun-24 01:24 196 3 gusting 5 18.9
2018-Jun-24 01:20 181 2 gusting 5 18.9
2018-Jun-24 01:14 189 4 gusting 4 18.9
2018-Jun-24 01:10 225 3 gusting 4 18.9
2018-Jun-24 01:03 209 1 gusting 3 18.9
2018-Jun-24 00:59 203 1 gusting 2 19.4
2018-Jun-24 00:53 217 0 gusting 3 19.4
2018-Jun-24 00:49 201 1 gusting 4 19.4
2018-Jun-24 00:43 201 2 gusting 4 19.4
2018-Jun-24 00:39 163 3 gusting 4 19.4
2018-Jun-24 00:33 208 0 gusting 3 20.0
2018-Jun-24 00:29 216 1 gusting 3 20.0
2018-Jun-24 00:23 201 1 gusting 2 20.0
2018-Jun-24 00:19 178 1 gusting 2 20.0
2018-Jun-24 00:13 175 20.6
2018-Jun-24 00:09 208 1 gusting 2 20.6
2018-Jun-24 00:05 201 1 gusting 0 20.6
2018-Jun-23 23:59 172 20.6
2018-Jun-23 23:55 175 1 20.0
2018-Jun-23 23:48 116 20.6
2018-Jun-23 23:44 149 0 gusting 1 20.0
2018-Jun-23 23:38 126 20.0
2018-Jun-23 23:34 140 20.0
2018-Jun-23 23:28 163 1 gusting 2 20.0
2018-Jun-23 23:24 187 2 gusting 4 20.0
2018-Jun-23 23:18 147 2 gusting 3 20.0
2018-Jun-23 23:14 196 2 gusting 4 19.4
2018-Jun-23 23:08 188 0 gusting 5 18.9
2018-Jun-23 23:04 203 4 gusting 5 17.2
2018-Jun-23 22:58 223 3 gusting 6 17.8
2018-Jun-23 22:54 201 3 gusting 6 17.8
2018-Jun-23 22:50 177 3 gusting 5 17.8
2018-Jun-23 22:44 208 3 gusting 5 17.8
2018-Jun-23 22:40 208 2 gusting 6 18.3
2018-Jun-23 22:33 232 3 gusting 5 18.3
2018-Jun-23 22:29 177 2 gusting 6 18.3
2018-Jun-23 22:23 198 4 gusting 6 18.3
2018-Jun-23 22:19 247 3 gusting 7 18.3
2018-Jun-23 22:13 213 6 gusting 6 18.9
2018-Jun-23 22:09 163 3 gusting 6 18.9
2018-Jun-23 22:03 255 2 gusting 7 18.9
2018-Jun-23 21:59 227 1 gusting 7 18.9
2018-Jun-23 21:53 208 5 gusting 7 19.4
2018-Jun-23 21:49 233 5 gusting 7 19.4
2018-Jun-23 21:43 217 4 gusting 6 20.0
2018-Jun-23 21:39 225 3 gusting 6 20.0
2018-Jun-23 21:33 195 2 gusting 6 20.6
2018-Jun-23 21:29 234 2 gusting 6 20.6
2018-Jun-23 21:25 203 4 gusting 6 20.6
2018-Jun-23 21:19 229 0 gusting 6 21.1
2018-Jun-23 21:14 180 3 gusting 4 21.1
2018-Jun-23 21:08 139 0 gusting 6 21.1
2018-Jun-23 21:04 187 3 gusting 6 21.7
2018-Jun-23 20:58 181 1 gusting 3 22.2
2018-Jun-23 20:54 144 22.2
2018-Jun-23 20:48 212 2 gusting 3 22.2
2018-Jun-23 20:44 182 22.2
2018-Jun-23 20:38 302 0 gusting 3 22.2
2018-Jun-23 20:34 322 22.2
2018-Jun-23 20:28 302 1 gusting 4 22.2
2018-Jun-23 20:24 358 22.2
2018-Jun-23 20:18 230 22.8
2018-Jun-23 20:14 322 2 gusting 4 22.8
2018-Jun-23 20:10 340 3 gusting 4 22.8
2018-Jun-23 20:04 313 4 gusting 2 23.3
2018-Jun-23 20:00 317 1 gusting 5 23.3
2018-Jun-23 19:53 291 23.9
2018-Jun-23 19:49 295 2 gusting 3 23.9
2018-Jun-23 19:43 313 1 gusting 4 23.9
2018-Jun-23 19:39 247 1 gusting 5 24.4
2018-Jun-23 19:33 220 0 gusting 2 25.0
2018-Jun-23 19:29 281 25.0
2018-Jun-23 19:23 317 0 gusting 3 25.0
2018-Jun-23 19:19 260 1 gusting 4 25.0
2018-Jun-23 19:09 298 5 gusting 6 25.0
2018-Jun-23 19:03 313 6 gusting 7 25.6
2018-Jun-23 18:59 295 6 gusting 3 26.1
2018-Jun-23 18:55 150 26.1
2018-Jun-23 18:49 264 3 gusting 4 25.6
2018-Jun-23 18:45 295 0 gusting 5 25.6
2018-Jun-23 18:38 239 1 gusting 7 25.6
2018-Jun-23 18:34 262 4 gusting 6 25.0
2018-Jun-23 18:28 258 2 gusting 7 25.0
2018-Jun-23 18:24 257 3 gusting 7 25.0
2018-Jun-23 18:18 265 5 gusting 9 25.6
2018-Jun-23 18:14 315 4 gusting 8 26.1
2018-Jun-23 18:08 262 4 gusting 6 26.1
2018-Jun-23 18:04 268 1 gusting 6 26.7
2018-Jun-23 17:58 262 3 gusting 6 27.2
2018-Jun-23 17:54 254 2 gusting 7 27.8
2018-Jun-23 17:48 288 2 gusting 4 28.3
2018-Jun-23 17:44 264 0 gusting 4 28.3
2018-Jun-23 17:40 233 28.3
2018-Jun-23 17:34 334 0 gusting 4 28.9
2018-Jun-23 17:30 274 28.9
2018-Jun-23 17:23 277 0 gusting 5 28.9
2018-Jun-23 17:19 323 2 gusting 3 28.9
2018-Jun-23 17:13 265 28.3
2018-Jun-23 17:09 279 28.3
2018-Jun-23 17:03 295 1 gusting 6 28.9
2018-Jun-23 16:59 334 5 gusting 6 28.9
2018-Jun-23 16:53 300 2 gusting 4 29.4
2018-Jun-23 16:49 262 1 gusting 3 29.4
2018-Jun-23 16:43 203 28.9
2018-Jun-23 16:39 298 2 gusting 5 28.3
2018-Jun-23 16:33 306 5 gusting 6 28.9
2018-Jun-23 16:29 267 3 gusting 5 28.9
2018-Jun-23 16:25 331 1 gusting 5 28.9
2018-Jun-23 16:19 268 0 gusting 4 29.4
2018-Jun-23 16:15 271 0 gusting 5 28.9
2018-Jun-23 16:08 240 0 gusting 5 29.4
2018-Jun-23 16:04 324 4 gusting 4 28.9
2018-Jun-23 15:58 272 28.9
2018-Jun-23 15:54 298 3 gusting 6 28.3
2018-Jun-23 15:48 286 0 gusting 5 28.9
2018-Jun-23 15:44 247 0 gusting 6 28.3
2018-Jun-23 15:38 305 6 gusting 6 28.9
2018-Jun-23 15:34 284 3 gusting 6 28.9
2018-Jun-23 15:28 286 4 gusting 8 28.3
2018-Jun-23 15:24 278 2 gusting 7 28.3
2018-Jun-23 15:18 305 6 gusting 7 28.3
2018-Jun-23 15:14 293 5 gusting 7 27.8
2018-Jun-23 15:10 358 3 gusting 7 28.3
2018-Jun-23 15:04 329 2 gusting 7 28.9
2018-Jun-23 15:00 237 28.9
2018-Jun-23 14:54 292 3 gusting 6 28.3
2018-Jun-23 14:49 279 3 gusting 6 28.3
2018-Jun-23 14:43 298 2 gusting 5 28.3
2018-Jun-23 14:39 288 1 gusting 7 28.3
2018-Jun-23 14:33 312 6 gusting 6 28.3
2018-Jun-23 14:29 291 3 gusting 6 28.3
2018-Jun-23 14:23 324 4 gusting 6 28.3
2018-Jun-23 14:19 260 28.3
2018-Jun-23 14:13 241 3 gusting 7 28.3
2018-Jun-23 14:09 243 3 gusting 6 27.8
2018-Jun-23 14:03 324 2 gusting 7 27.2
2018-Jun-23 13:59 344 3 gusting 8 27.8
2018-Jun-23 13:53 322 3 gusting 8 27.8
2018-Jun-23 13:49 306 4 gusting 6 27.8
2018-Jun-23 13:45 021 27.8
2018-Jun-23 13:39 289 4 gusting 6 27.2
2018-Jun-23 13:34 341 4 gusting 6 27.2
2018-Jun-23 13:28 326 5 gusting 6 27.8
2018-Jun-23 13:24 012 0 gusting 2 28.9
2018-Jun-23 13:18 299 28.9
2018-Jun-23 13:14 135 29.4
2018-Jun-23 13:08 227 0 gusting 3 28.9
2018-Jun-23 13:04 049 1 gusting 4 28.9
2018-Jun-23 12:58 139 2 gusting 6 28.9
2018-Jun-23 12:54 205 28.9
2018-Jun-23 12:48 313 1 gusting 6 28.3
2018-Jun-23 12:44 285 3 gusting 9 28.3
2018-Jun-23 12:38 247 6 gusting 6 29.4
2018-Jun-23 12:34 232 1 gusting 6 30.0
2018-Jun-23 12:30 213 5 gusting 6 30.0
2018-Jun-23 12:24 282 1 gusting 5 29.4
2018-Jun-23 12:20 313 5 gusting 6 30.0
2018-Jun-23 12:13 222 2 gusting 4 28.9
2018-Jun-23 12:09 347 28.9
2018-Jun-23 12:03 274 0 gusting 5 28.9
2018-Jun-23 11:59 223 1 gusting 5 28.9
2018-Jun-23 11:53 292 2 gusting 4 28.9
2018-Jun-23 11:49 298 3 gusting 3 28.9
2018-Jun-23 11:43 312 1 gusting 4 28.9
2018-Jun-23 11:39 208 0 gusting 6 28.9
2018-Jun-23 11:33 247 2 gusting 3 29.4
2018-Jun-23 11:29 274 3 gusting 5 29.4
2018-Jun-23 11:23 161 29.4
2018-Jun-23 11:19 201 2 gusting 3 28.9
2018-Jun-23 11:15 253 0 gusting 4 28.3
2018-Jun-23 11:09 247 0 gusting 5 28.9
2018-Jun-23 11:02 262 1 gusting 6 27.8
2018-Jun-23 10:58 277 0 gusting 4 27.8
2018-Jun-23 10:54 188 1 gusting 4 27.8
2018-Jun-23 10:46 196 1 gusting 4 27.2
2018-Jun-23 10:42 268 0 gusting 4 27.2
2018-Jun-23 10:38 277 0 gusting 4 27.2
2018-Jun-23 10:34 217 26.7
2018-Jun-23 10:26 189 26.7
2018-Jun-23 10:22 275 26.1
2018-Jun-23 10:18 306 26.1
2018-Jun-23 10:14 307 0 gusting 1 26.1
2018-Jun-23 10:10 177 1 gusting 3 26.1
2018-Jun-23 10:03 241 1 gusting 3 26.1
2018-Jun-23 09:59 285 0 gusting 2 26.1
2018-Jun-23 09:53 250 1 gusting 4 26.1
2018-Jun-23 09:49 270 26.1
2018-Jun-23 09:43 258 25.6
2018-Jun-23 09:39 174 2 gusting 6 25.6
2018-Jun-23 09:33 243 25.6
2018-Jun-23 09:29 236 1 gusting 5 25.6
2018-Jun-23 09:23 174 25.6
2018-Jun-23 09:19 209 0 gusting 4 25.6
2018-Jun-23 09:13 258 3 gusting 4 25.6
2018-Jun-23 09:09 171 1 gusting 0 25.6
2018-Jun-23 09:05 217 25.6
2018-Jun-23 08:59 135 2 gusting 3 25.0
2018-Jun-23 08:55 108 25.0
2018-Jun-23 08:49 136 1 gusting 2 24.4
2018-Jun-23 08:44 158 2 gusting 1 25.0
2018-Jun-23 08:38 233 25.0
2018-Jun-23 08:34 158 24.4
2018-Jun-23 08:28 129 25.0
2018-Jun-23 08:24 151 25.0
2018-Jun-23 08:18 202 25.0
2018-Jun-23 08:14 202 25.0
2018-Jun-23 08:08 164 0 gusting 2 25.0
2018-Jun-23 08:04 156 1 gusting 1 25.0
2018-Jun-23 07:58 144 24.4
2018-Jun-23 07:54 174 1 gusting 4 24.4
2018-Jun-23 07:48 164 0 gusting 4 24.4
2018-Jun-23 07:44 220 1 gusting 2 24.4
2018-Jun-23 07:40 198 24.4
2018-Jun-23 07:34 206 1 gusting 2 25.0
2018-Jun-23 07:29 239 1 25.0
2018-Jun-23 07:23 108 24.4
2018-Jun-23 07:19 108 24.4
2018-Jun-23 07:13 111 25.0
2018-Jun-23 07:09 111 25.0
2018-Jun-23 07:03 111 23.9
2018-Jun-23 06:59 111 23.3
2018-Jun-23 06:53 111 21.7
2018-Jun-23 06:49 137 0 gusting 1 21.1
2018-Jun-23 06:43 129 0 gusting 1 20.0
2018-Jun-23 06:39 082 19.4
2018-Jun-23 06:33 063 19.4
2018-Jun-23 06:29 151 19.4
2018-Jun-23 06:25 151 19.4
2018-Jun-23 06:19 151 19.4
2018-Jun-23 06:15 151 18.9
2018-Jun-23 06:08 151 18.3
2018-Jun-23 06:04 151 18.3
2018-Jun-23 05:58 151 18.3
2018-Jun-23 05:54 151 18.3
2018-Jun-23 05:48 151 18.3
2018-Jun-23 05:44 151 18.3
2018-Jun-23 05:38 151 18.3
2018-Jun-23 05:34 151 18.3
2018-Jun-23 05:28 156 17.8
2018-Jun-23 05:24 188 0 gusting 3 18.3
2018-Jun-23 05:18 161 1 gusting 3 17.8
2018-Jun-23 05:14 196 2 gusting 2 17.8
2018-Jun-23 05:10 233 0 gusting 2 17.8
2018-Jun-23 05:04 232 1 gusting 3 17.8
2018-Jun-23 05:00 206 1 gusting 3 17.8
2018-Jun-23 04:53 226 2 gusting 4 18.3
2018-Jun-23 04:49 196 3 gusting 4 18.3
2018-Jun-23 04:41 206 2 gusting 4 18.3
2018-Jun-23 04:39 201 2 gusting 4 18.3
2018-Jun-23 04:33 206 3 gusting 4 18.3
2018-Jun-23 04:29 209 3 gusting 6 18.3
2018-Jun-23 04:23 226 2 gusting 6 18.3
2018-Jun-23 04:19 210 3 gusting 6 18.3
2018-Jun-23 04:13 265 2 gusting 6 18.3
2018-Jun-23 04:09 220 4 gusting 6 18.3
2018-Jun-23 04:03 199 3 gusting 7 18.3
2018-Jun-23 03:59 209 4 gusting 7 18.3
2018-Jun-23 03:53 213 3 gusting 7 18.3
2018-Jun-23 03:49 171 4 gusting 7 18.3
2018-Jun-23 03:45 213 6 gusting 7 18.3
2018-Jun-23 03:39 203 4 gusting 7 18.3
2018-Jun-23 03:34 201 3 gusting 6 18.3
2018-Jun-23 03:28 184 5 gusting 6 18.3
2018-Jun-23 03:24 191 5 gusting 6 18.3
2018-Jun-23 03:18 222 4 gusting 7 18.3
2018-Jun-23 03:14 205 6 gusting 8 18.3
2018-Jun-23 03:08 215 7 gusting 8 18.3
2018-Jun-23 03:04 210 5 gusting 7 18.3
2018-Jun-23 02:58 174 5 gusting 6 18.3
2018-Jun-23 02:54 213 6 gusting 7 18.3
2018-Jun-23 02:48 195 6 gusting 7 18.3
2018-Jun-23 02:44 215 6 gusting 7 18.3
2018-Jun-23 02:38 225 3 gusting 6 18.9
2018-Jun-23 02:34 213 4 gusting 6 18.9
2018-Jun-23 02:30 208 3 gusting 5 18.9
2018-Jun-23 02:24 230 4 gusting 5 18.9
2018-Jun-23 02:20 195 4 gusting 4 19.4
2018-Jun-23 02:13 172 1 gusting 4 19.4
2018-Jun-23 02:09 217 0 gusting 1 19.4
2018-Jun-23 02:01 160 20.0
2018-Jun-23 01:59 160 20.0
2018-Jun-23 01:53 201 20.0
2018-Jun-23 01:49 201 20.0
2018-Jun-23 01:43 347 19.4
2018-Jun-23 01:39 347 20.0
2018-Jun-23 01:33 347 19.4
2018-Jun-23 01:29 326 1 gusting 1 19.4
2018-Jun-23 01:23 345 1 gusting 1 19.4
2018-Jun-23 01:19 008 19.4
2018-Jun-23 01:15 261 19.4
2018-Jun-23 01:09 268 19.4
2018-Jun-23 01:05 305 0 gusting 3 19.4
2018-Jun-23 00:58 246 19.4
2018-Jun-23 00:54 289 1 gusting 4 18.9
2018-Jun-23 00:48 008 2 gusting 4 18.9
2018-Jun-23 00:44 220 0 gusting 4 19.4
2018-Jun-23 00:38 329 1 gusting 4 18.9
2018-Jun-23 00:34 320 18.9
2018-Jun-23 00:28 243 18.3
2018-Jun-23 00:24 230 18.3
2018-Jun-23 00:18 002 18.9
2018-Jun-23 00:14 253 18.9
2018-Jun-23 00:08 333 1 gusting 4 18.3
2018-Jun-23 00:04 012 0 gusting 4 18.3
2018-Jun-23 00:00 264 18.3
2018-Jun-22 23:54 327 1 gusting 3 18.3
2018-Jun-22 23:50 298 18.3
2018-Jun-22 23:43 215 0 gusting 5 18.3
2018-Jun-22 23:39 270 0 gusting 3 18.9
2018-Jun-22 23:33 284 1 gusting 3 18.3
2018-Jun-22 23:29 310 0 gusting 4 18.3
2018-Jun-22 23:23 220 0 gusting 5 18.9
2018-Jun-22 23:19 281 18.9
2018-Jun-22 23:13 210 0 gusting 3 18.9
2018-Jun-22 23:09 305 0 gusting 3 18.9
2018-Jun-22 23:03 019 18.9
2018-Jun-22 22:59 234 0 gusting 5 18.9
2018-Jun-22 22:53 191 18.9
2018-Jun-22 22:49 295 19.4
2018-Jun-22 22:43 316 2 gusting 4 19.4
2018-Jun-22 22:39 296 0 gusting 3 19.4
2018-Jun-22 22:35 234 19.4
2018-Jun-22 22:29 322 0 gusting 2 19.4
2018-Jun-22 22:24 270 0 gusting 3 19.4
2018-Jun-22 22:18 068 19.4
2018-Jun-22 22:14 316 0 gusting 3 20.0
2018-Jun-22 22:08 246 19.4
2018-Jun-22 22:04 331 1 gusting 2 20.0
2018-Jun-22 21:58 298 0 gusting 3 19.4
2018-Jun-22 21:54 317 1 gusting 2 20.0
2018-Jun-22 21:48 337 20.0
2018-Jun-22 21:44 312 1 gusting 3 20.0
2018-Jun-22 21:38 340 2 gusting 3 20.0
2018-Jun-22 21:34 293 2 gusting 2 20.0
2018-Jun-22 21:28 232 1 gusting 3 20.0
2018-Jun-22 21:24 307 1 gusting 4 20.0
2018-Jun-22 21:20 331 0 gusting 5 20.6
2018-Jun-22 21:14 315 1 gusting 4 19.4
2018-Jun-22 21:10 337 2 gusting 3 20.6
2018-Jun-22 21:03 144 20.0
2018-Jun-22 20:59 324 1 gusting 4 19.4
2018-Jun-22 20:53 255 1 gusting 3 20.0
2018-Jun-22 20:49 336 0 gusting 3 20.0
2018-Jun-22 20:43 319 2 gusting 3 20.0
2018-Jun-22 20:39 312 0 gusting 3 20.0
2018-Jun-22 20:33 278 20.0
2018-Jun-22 20:29 296 20.0
2018-Jun-22 20:23 319 2 gusting 3 20.6
2018-Jun-22 20:19 327 1 gusting 3 20.0
2018-Jun-22 20:13 316 19.4
2018-Jun-22 20:09 331 2 gusting 3 20.0
2018-Jun-22 20:05 317 0 gusting 2 20.6